FW0323 Weather Reports


time (UTC)temp
C
wind
direction
speed
KPH
gust
KPH
rain 1hr
cm
rain 24hr
cm
rain mn
cm
humidity
%
barometer
mb
20260508043058 4 227 0.0 0.0 0.00 0.30 0.00 61 1010.5
20260508041551 5 227 0.0 1.6 0.00 0.30 0.00 63 1010.3
20260508040043 5 227 0.0 0.0 0.00 0.30 0.00 58 1010.4
20260508034542 6 227 0.0 1.6 0.00 0.36 0.30 57 1010.4
20260508033041 6 227 0.0 0.0 0.00 0.36 0.30 56 1010.5
20260508031541 5 190 0.0 0.0 0.00 0.36 0.30 62 1010.6
20260508030043 6 191 0.0 0.0 0.00 0.36 0.30 63 1010.5
20260508024540 6 191 0.0 0.0 0.00 0.36 0.30 62 1010.4
20260508023037 6 191 0.0 0.0 0.00 0.36 0.30 62 1010.3
20260508021541 6 191 0.0 0.0 0.00 0.36 0.30 58 1010.3
20260508020045 7 191 0.0 0.0 0.00 0.36 0.30 58 1010.3
20260508014536 7 191 0.0 0.0 0.00 0.38 0.30 51 1010.1
20260508013041 8 191 0.0 3.2 0.00 0.38 0.30 51 1009.9
20260508011534 8 181 0.0 1.6 0.00 0.38 0.30 50 1009.7
20260508010035 8 221 0.0 1.6 0.00 0.38 0.30 50 1009.5
20260508004533 9 155 0.0 0.0 0.00 0.38 0.30 48 1009.2
20260508003033 9 155 0.0 3.2 0.00 0.38 0.30 49 1009.0
20260508001558 10 271 0.0 1.6 0.00 0.38 0.30 47 1008.7
20260508000031 10 271 0.0 1.6 0.00 0.38 0.30 43 1008.5
20260507234534 11 335 0.0 9.7 0.00 0.38 0.30 41 1008.3
20260507233030 11 77 0.0 1.6 0.00 0.38 0.30 41 1008.1
20260507231535 12 359 0.0 1.6 0.00 0.38 0.30 40 1007.8
20260507230029 12 75 0.0 1.6 0.00 0.38 0.30 40 1007.6
20260507224539 13 172 0.0 3.2 0.00 0.38 0.30 39 1007.4
20260507223028 13 306 3.2 9.7 0.00 0.38 0.30 38 1007.2
20260507221528 14 344 1.6 6.4 0.00 0.38 0.30 31 1007.1
20260507220038 15 341 3.2 9.7 0.00 0.38 0.30 29 1007.0
20260507214534 15 10 1.6 6.4 0.00 0.46 0.30 33 1007.1
20260507213029 15 299 0.0 6.4 0.00 0.46 0.30 29 1007.0
20260507211525 15 291 0.0 6.4 0.00 0.46 0.30 31 1007.1
20260507210025 16 161 0.0 12.9 0.00 0.46 0.30 29 1006.9
20260507204523 16 11 3.2 8.0 0.00 0.66 0.30 27 1006.8
20260507203029 16 330 3.2 9.7 0.00 0.66 0.30 29 1006.7
20260507201523 16 255 3.2 12.9 0.00 0.66 0.30 30 1006.8
20260507200025 16 311 3.2 12.9 0.00 0.66 0.30 28 1006.7
20260507194521 16 257 4.8 11.3 0.00 1.22 0.30 31 1006.7
20260507193019 16 335 3.2 11.3 0.00 1.22 0.30 33 1006.7
20260507191518 16 356 3.2 9.7 0.00 1.22 0.30 31 1006.9
20260507190019 17 232 3.2 8.0 0.00 1.22 0.30 32 1006.9
20260507184513 16 195 1.6 9.7 0.00 1.42 0.30 35 1007.1
20260507183013 16 256 3.2 16.1 0.00 1.42 0.30 43 1007.0
20260507181511 16 279 3.2 9.7 0.00 1.42 0.30 42 1007.1
20260507180012 15 248 1.6 16.1 0.00 1.42 0.30 48 1007.1
20260507174509 15 330 3.2 9.7 0.00 1.42 0.30 48 1007.3
20260507173008 16 317 4.8 9.7 0.00 1.42 0.30 44 1007.3
20260507171514 15 250 3.2 6.4 0.00 1.42 0.30 47 1007.3
20260507170007 14 226 4.8 14.5 0.00 1.42 0.30 50 1007.5
20260507164506 15 271 1.6 4.8 0.00 1.42 0.30 48 1007.6
20260507163006 15 334 1.6 4.8 0.00 1.42 0.30 48 1007.6
20260507161506 16 207 3.2 11.3 0.00 1.42 0.30 46 1007.7
20260507160007 15 207 0.0 6.4 0.00 1.42 0.30 48 1008.0
20260507154502 16 271 0.0 6.4 0.00 1.42 0.30 46 1008.1
20260507153003 15 254 3.2 12.9 0.00 1.42 0.30 48 1008.2
20260507151600 15 237 1.6 4.8 0.00 1.42 0.30 50 1008.3
20260507150057 15 261 0.0 8.0 0.00 1.42 0.30 50 1008.4
20260507144554 15 338 1.6 9.7 0.00 1.42 0.30 55 1008.6
20260507143053 14 326 1.6 8.0 0.00 1.42 0.30 55 1008.6
20260507141553 14 138 0.0 4.8 0.00 1.42 0.30 59 1008.9
20260507140052 13 150 0.0 8.0 0.00 1.42 0.30 61 1008.9
20260507134550 13 252 0.0 8.0 0.00 1.42 0.30 60 1009.1
20260507133045 12 7 1.6 4.8 0.00 1.42 0.30 63 1009.3
20260507131554 12 280 0.0 4.8 0.00 1.42 0.30 66 1009.3
20260507130040 12 319 1.6 6.4 0.00 1.42 0.30 68 1009.4
20260507124536 11 1 0.0 4.8 0.00 1.42 0.30 71 1009.3
20260507123036 10 338 0.0 8.0 0.00 1.42 0.30 74 1009.7
20260507121534 10 322 0.0 4.8 0.00 1.42 0.30 74 1009.6
20260507120040 10 356 0.0 6.4 0.03 1.42 0.30 78 1009.7
20260507114532 9 268 1.6 6.4 0.03 1.42 0.30 83 1009.6
20260507113029 8 96 0.0 1.6 0.03 1.42 0.30 96 1009.6
20260507111528 7 349 0.0 4.8 0.03 1.42 0.30 97 1009.7
20260507110029 6 97 0.0 1.6 0.00 1.40 0.28 97 1009.7
20260507104527 6 214 0.0 1.6 0.00 1.40 0.28 97 1010.0
20260507103027 6 214 0.0 1.6 0.00 1.40 0.28 97 1009.7
20260507101527 6 257 0.0 1.6 0.00 1.40 0.28 96 1009.8
20260507100033 6 257 0.0 1.6 0.00 1.40 0.28 96 1010.0
20260507094524 6 257 0.0 1.6 0.00 1.40 0.28 96 1009.2
20260507093024 6 257 0.0 1.6 0.00 1.40 0.28 96 1008.8
20260507091521 6 257 0.0 1.6 0.00 1.40 0.28 95 1009.0
20260507090023 6 257 0.0 1.6 0.00 1.40 0.28 96 1009.3
20260507084518 6 228 0.0 1.6 0.00 1.40 0.28 96 1009.4
20260507083017 6 228 0.0 0.0 0.00 1.40 0.28 96 1009.3
20260507081533 7 228 0.0 1.6 0.00 1.40 0.28 96 1009.4
20260507080013 7 20 0.0 1.6 0.00 1.40 0.28 96 1008.9
20260507074523 7 95 0.0 1.6 0.00 1.40 0.28 96 1008.8
20260507073009 7 290 0.0 1.6 0.00 1.40 0.28 97 1008.9
20260507071507 8 289 0.0 3.2 0.00 1.40 0.28 97 1008.9
20260507070009 8 297 0.0 1.6 0.00 1.40 0.28 97 1008.4
20260507064504 8 297 0.0 1.6 0.00 1.40 0.28 97 1008.2
20260507063001 8 297 0.0 0.0 0.00 1.40 0.28 97 1008.2
20260507061607 8 297 0.0 1.6 0.00 1.40 0.28 97 1008.0
20260507060058 8 297 0.0 1.6 0.00 1.40 0.28 97 1008.1
20260507054638 8 297 0.0 1.6 0.00 1.40 0.28 97 1007.9
20260507053056 8 297 0.0 1.6 0.00 1.40 0.28 97 1007.7
20260507051553 9 286 0.0 3.2 0.05 1.40 0.28 97 1007.6
20260507050055 10 322 0.0 3.2 0.25 1.40 0.28 97 1007.9
20260507044554 10 328 0.0 1.6 0.28 1.40 0.28 97 1007.6